| time (UTC) | temp F | wind direction | speed MPH | gust MPH | rain 1hr in | rain 24hr in | rain mn in | humidity % | barometer mb |
| 20260503225040 | 75 | 303 | 2.0 | 4.0 | 0.00 | 0.00 | 0.00 | 30 | 1008.9 |
| 20260503224555 | 75 | 267 | 2.0 | 7.0 | 0.00 | 0.00 | 0.00 | 31 | 1009.0 |
| 20260503224050 | 75 | 347 | 4.0 | 7.0 | 0.00 | 0.00 | 0.00 | 32 | 1009.1 |
| 20260503223545 | 75 | 269 | 4.0 | 6.0 | 0.00 | 0.00 | 0.00 | 31 | 1009.1 |
| 20260503223040 | 75 | 183 | 1.0 | 4.0 | 0.00 | 0.00 | 0.00 | 33 | 1009.1 |
| 20260503222540 | 75 | 170 | 1.0 | 5.0 | 0.00 | 0.00 | 0.00 | 31 | 1009.0 |
| 20260503222036 | 75 | 190 | 4.0 | 5.0 | 0.00 | 0.00 | 0.00 | 32 | 1009.1 |
| 20260503221628 | 75 | 1 | 1.0 | 4.0 | 0.00 | 0.00 | 0.00 | 32 | 1009.0 |
| 20260503221042 | 75 | 1 | 2.0 | 9.0 | 0.00 | 0.00 | 0.00 | 32 | 1009.1 |
| 20260503220611 | 75 | 1 | 2.0 | 9.0 | 0.00 | 0.00 | 0.00 | 34 | 1009.1 |
| 20260503220048 | 75 | 266 | 1.0 | 7.0 | 0.00 | 0.00 | 0.00 | 31 | 1009.2 |
| 20260503215543 | 75 | 308 | 5.0 | 7.0 | 0.00 | 0.00 | 0.00 | 34 | 1009.5 |
| 20260503215100 | 75 | 334 | 4.0 | 6.0 | 0.00 | 0.00 | 0.00 | 31 | 1009.5 |
| 20260503214555 | 75 | 330 | 2.0 | 4.0 | 0.00 | 0.00 | 0.00 | 33 | 1009.5 |
| 20260503214050 | 75 | 225 | 2.0 | 6.0 | 0.00 | 0.00 | 0.00 | 33 | 1009.5 |
| 20260503213608 | 75 | 297 | 1.0 | 8.0 | 0.00 | 0.00 | 0.00 | 32 | 1009.7 |
| 20260503213042 | 75 | 281 | 5.0 | 8.0 | 0.00 | 0.00 | 0.00 | 32 | 1009.6 |
| 20260503212536 | 74 | 338 | 2.0 | 7.0 | 0.00 | 0.00 | 0.00 | 34 | 1009.8 |
| 20260503212032 | 74 | 337 | 4.0 | 11.0 | 0.00 | 0.00 | 0.00 | 32 | 1010.0 |
| 20260503211038 | 75 | 341 | 4.0 | 8.0 | 0.00 | 0.00 | 0.00 | 32 | 1010.0 |
| 20260503210607 | 75 | 276 | 2.0 | 8.0 | 0.00 | 0.00 | 0.00 | 31 | 1010.0 |
| 20260503210044 | 75 | 6 | 3.0 | 8.0 | 0.00 | 0.00 | 0.00 | 34 | 1010.1 |
| 20260503205540 | 75 | 308 | 2.0 | 7.0 | 0.00 | 0.00 | 0.00 | 31 | 1010.3 |
| 20260503205035 | 75 | 283 | 1.0 | 7.0 | 0.00 | 0.00 | 0.00 | 32 | 1010.3 |
| 20260503204532 | 75 | 227 | 3.0 | 7.0 | 0.00 | 0.00 | 0.00 | 32 | 1010.4 |
| 20260503204049 | 74 | 244 | 3.0 | 7.0 | 0.00 | 0.00 | 0.00 | 33 | 1010.4 |
| 20260503203544 | 74 | 316 | 4.0 | 7.0 | 0.00 | 0.00 | 0.00 | 33 | 1010.5 |
| 20260503203059 | 75 | 322 | 3.0 | 10.0 | 0.00 | 0.00 | 0.00 | 33 | 1010.5 |
| 20260503202535 | 74 | 1 | 4.0 | 12.0 | 0.00 | 0.00 | 0.00 | 34 | 1010.6 |
| 20260503202032 | 73 | 309 | 4.0 | 10.0 | 0.00 | 0.00 | 0.00 | 33 | 1010.7 |
| 20260503201548 | 73 | 352 | 5.0 | 10.0 | 0.00 | 0.00 | 0.00 | 32 | 1010.8 |
| 20260503201044 | 73 | 313 | 5.0 | 11.0 | 0.00 | 0.00 | 0.00 | 32 | 1010.8 |
| 20260503200553 | 73 | 332 | 7.0 | 10.0 | 0.00 | 0.00 | 0.00 | 33 | 1010.7 |
| 20260503200051 | 73 | 288 | 5.0 | 9.0 | 0.00 | 0.00 | 0.00 | 33 | 1010.8 |
| 20260503195608 | 72 | 355 | 5.0 | 9.0 | 0.00 | 0.00 | 0.00 | 33 | 1010.9 |
| 20260503195042 | 73 | 281 | 6.0 | 9.0 | 0.00 | 0.00 | 0.00 | 33 | 1010.9 |
| 20260503194043 | 73 | 316 | 4.0 | 12.0 | 0.00 | 0.00 | 0.00 | 33 | 1010.8 |
| 20260503193538 | 73 | 304 | 4.0 | 13.0 | 0.00 | 0.00 | 0.00 | 31 | 1011.0 |
| 20260503193116 | 73 | 286 | 7.0 | 13.0 | 0.00 | 0.00 | 0.00 | 32 | 1011.0 |
| 20260503192546 | 73 | 314 | 6.0 | 11.0 | 0.00 | 0.00 | 0.00 | 35 | 1011.0 |
| 20260503192041 | 73 | 352 | 6.0 | 11.0 | 0.00 | 0.00 | 0.00 | 32 | 1011.0 |
| 20260503191538 | 73 | 341 | 5.0 | 13.0 | 0.00 | 0.00 | 0.00 | 33 | 1011.1 |
| 20260503191033 | 73 | 326 | 4.0 | 13.0 | 0.00 | 0.00 | 0.00 | 33 | 1011.0 |
| 20260503190600 | 73 | 349 | 6.0 | 11.0 | 0.00 | 0.00 | 0.00 | 33 | 1011.1 |
| 20260503190035 | 73 | 1 | 3.0 | 11.0 | 0.00 | 0.00 | 0.00 | 35 | 1011.2 |
| 20260503185533 | 73 | 328 | 4.0 | 13.0 | 0.00 | 0.00 | 0.00 | 33 | 1011.2 |
| 20260503185048 | 73 | 330 | 5.0 | 13.0 | 0.00 | 0.00 | 0.00 | 33 | 1011.2 |
| 20260503184545 | 73 | 333 | 4.0 | 10.0 | 0.00 | 0.00 | 0.00 | 33 | 1011.2 |
| 20260503184040 | 73 | 315 | 5.0 | 13.0 | 0.00 | 0.00 | 0.00 | 34 | 1011.2 |
| 20260503183537 | 72 | 354 | 4.0 | 13.0 | 0.00 | 0.00 | 0.00 | 36 | 1011.3 |
| 20260503183032 | 72 | 335 | 6.0 | 11.0 | 0.00 | 0.00 | 0.00 | 33 | 1011.4 |
| 20260503182610 | 72 | 319 | 4.0 | 11.0 | 0.00 | 0.00 | 0.00 | 34 | 1011.4 |
| 20260503182043 | 72 | 359 | 6.0 | 11.0 | 0.00 | 0.00 | 0.00 | 32 | 1011.5 |
| 20260503181541 | 73 | 303 | 5.0 | 9.0 | 0.00 | 0.00 | 0.00 | 34 | 1011.6 |
| 20260503181037 | 73 | 314 | 5.0 | 8.0 | 0.00 | 0.00 | 0.00 | 35 | 1011.6 |
| 20260503180608 | 72 | 321 | 1.0 | 8.0 | 0.00 | 0.00 | 0.00 | 35 | 1011.6 |
| 20260503180042 | 71 | 345 | 3.0 | 8.0 | 0.00 | 0.00 | 0.00 | 34 | 1011.7 |
| 20260503175537 | 71 | 328 | 3.0 | 8.0 | 0.00 | 0.00 | 0.00 | 32 | 1011.7 |
| 20260503175033 | 71 | 307 | 3.0 | 8.0 | 0.00 | 0.00 | 0.00 | 35 | 1011.9 |
| 20260503174548 | 71 | 359 | 3.0 | 12.0 | 0.00 | 0.00 | 0.00 | 36 | 1011.9 |
| 20260503174044 | 71 | 319 | 6.0 | 12.0 | 0.00 | 0.00 | 0.00 | 34 | 1012.0 |
| 20260503173539 | 71 | 345 | 6.0 | 12.0 | 0.00 | 0.00 | 0.00 | 34 | 1012.0 |
| 20260503173035 | 71 | 351 | 5.0 | 11.0 | 0.00 | 0.00 | 0.00 | 34 | 1012.0 |
| 20260503172531 | 71 | 319 | 4.0 | 11.0 | 0.00 | 0.00 | 0.00 | 34 | 1012.0 |
| 20260503172108 | 70 | 293 | 4.0 | 9.0 | 0.00 | 0.00 | 0.00 | 36 | 1012.0 |
| 20260503171544 | 70 | 349 | 4.0 | 9.0 | 0.00 | 0.00 | 0.00 | 38 | 1012.0 |
| 20260503171040 | 70 | 354 | 3.0 | 9.0 | 0.00 | 0.00 | 0.00 | 42 | 1012.1 |
| 20260503170629 | 70 | 339 | 3.0 | 5.0 | 0.00 | 0.00 | 0.00 | 39 | 1012.1 |
| 20260503150559 | 61 | 337 | 3.0 | 7.0 | 0.00 | 0.00 | 0.00 | 49 | 1012.1 |
| 20260503131038 | 56 | 224 | 2.0 | 7.0 | 0.00 | 0.00 | 0.00 | 55 | 1011.7 |
| 20260503130607 | 56 | 233 | 3.0 | 7.0 | 0.00 | 0.00 | 0.00 | 54 | 1011.7 |
| 20260503110556 | 55 | 264 | 2.0 | 3.0 | 0.00 | 0.00 | 0.00 | 50 | 1011.1 |
| 20260503081038 | 52 | 199 | 4.0 | 7.0 | 0.00 | 0.00 | 0.00 | 54 | 1011.4 |
| 20260503080606 | 52 | 198 | 3.0 | 6.0 | 0.00 | 0.00 | 0.00 | 54 | 1011.5 |
| 20260503072531 | 53 | 204 | 4.0 | 8.0 | 0.00 | 0.00 | 0.00 | 52 | 1011.7 |
| 20260503072111 | 53 | 169 | 4.0 | 8.0 | 0.00 | 0.00 | 0.00 | 52 | 1011.8 |
| 20260503071548 | 53 | 200 | 5.0 | 10.0 | 0.00 | 0.00 | 0.00 | 51 | 1011.8 |
| 20260503071044 | 53 | 188 | 5.0 | 10.0 | 0.00 | 0.00 | 0.00 | 51 | 1011.8 |
| 20260503070552 | 53 | 198 | 4.0 | 7.0 | 0.00 | 0.00 | 0.00 | 51 | 1011.9 |
| 20260503055039 | 55 | 210 | 5.0 | 9.0 | 0.00 | 0.00 | 0.00 | 48 | 1012.9 |
| 20260503054537 | 55 | 193 | 5.0 | 9.0 | 0.00 | 0.00 | 0.00 | 47 | 1012.9 |
| 20260503054034 | 55 | 183 | 5.0 | 11.0 | 0.00 | 0.00 | 0.00 | 46 | 1012.9 |
| 20260503053532 | 55 | 190 | 6.0 | 11.0 | 0.00 | 0.00 | 0.00 | 47 | 1012.8 |
| 20260503053031 | 55 | 206 | 6.0 | 11.0 | 0.00 | 0.00 | 0.00 | 46 | 1012.8 |
| 20260503052549 | 55 | 192 | 6.0 | 12.0 | 0.00 | 0.00 | 0.00 | 46 | 1012.7 |
| 20260503052030 | 55 | 198 | 6.0 | 12.0 | 0.00 | 0.00 | 0.00 | 46 | 1012.8 |
| 20260503051549 | 55 | 172 | 6.0 | 10.0 | 0.00 | 0.00 | 0.00 | 46 | 1012.9 |
| 20260503051047 | 55 | 222 | 6.0 | 12.0 | 0.00 | 0.00 | 0.00 | 46 | 1012.9 |
| 20260503050559 | 56 | 228 | 6.0 | 12.0 | 0.00 | 0.00 | 0.00 | 46 | 1012.9 |
| 20260503050039 | 56 | 197 | 5.0 | 10.0 | 0.00 | 0.00 | 0.00 | 46 | 1012.9 |
| 20260503045536 | 56 | 214 | 5.0 | 11.0 | 0.00 | 0.00 | 0.00 | 45 | 1013.0 |
| 20260503045108 | 56 | 202 | 5.0 | 11.0 | 0.00 | 0.00 | 0.00 | 45 | 1013.0 |
| 20260503044556 | 56 | 214 | 5.0 | 9.0 | 0.00 | 0.00 | 0.00 | 45 | 1013.1 |
| 20260503044111 | 57 | 198 | 5.0 | 10.0 | 0.00 | 0.00 | 0.00 | 45 | 1013.1 |
| 20260503043545 | 57 | 198 | 6.0 | 10.0 | 0.00 | 0.00 | 0.00 | 44 | 1013.1 |
| 20260503043041 | 57 | 190 | 5.0 | 10.0 | 0.00 | 0.00 | 0.00 | 43 | 1013.2 |
| 20260503042536 | 57 | 167 | 6.0 | 11.0 | 0.00 | 0.00 | 0.00 | 43 | 1013.2 |
| 20260503042032 | 57 | 210 | 6.0 | 11.0 | 0.00 | 0.00 | 0.00 | 43 | 1013.3 |
| 20260503041546 | 58 | 193 | 6.0 | 11.0 | 0.00 | 0.00 | 0.00 | 42 | 1013.4 |
| 20260503041043 | 58 | 195 | 5.0 | 9.0 | 0.00 | 0.00 | 0.00 | 42 | 1013.5 |
| 20260503040551 | 58 | 195 | 5.0 | 11.0 | 0.00 | 0.00 | 0.00 | 42 | 1013.5 |
| 20260503040031 | 58 | 191 | 5.0 | 11.0 | 0.00 | 0.00 | 0.00 | 41 | 1013.6 |
| 20260503035533 | 58 | 217 | 5.0 | 11.0 | 0.00 | 0.00 | 0.00 | 41 | 1013.8 |
| 20260503035051 | 58 | 143 | 7.0 | 11.0 | 0.00 | 0.00 | 0.00 | 41 | 1013.8 |
| 20260503034548 | 58 | 214 | 5.0 | 11.0 | 0.00 | 0.00 | 0.00 | 40 | 1013.7 |
| 20260503034044 | 59 | 198 | 4.0 | 7.0 | 0.00 | 0.00 | 0.00 | 40 | 1013.8 |
| 20260503033540 | 59 | 189 | 5.0 | 11.0 | 0.00 | 0.00 | 0.00 | 40 | 1013.9 |
| 20260503033038 | 59 | 190 | 3.0 | 11.0 | 0.00 | 0.00 | 0.00 | 39 | 1014.0 |
| 20260503032537 | 59 | 200 | 5.0 | 11.0 | 0.00 | 0.00 | 0.00 | 39 | 1014.1 |
| 20260503032054 | 59 | 202 | 4.0 | 8.0 | 0.00 | 0.00 | 0.00 | 39 | 1014.1 |
| 20260503031551 | 59 | 207 | 3.0 | 9.0 | 0.00 | 0.00 | 0.00 | 39 | 1014.2 |
| 20260503031045 | 59 | 204 | 4.0 | 9.0 | 0.00 | 0.00 | 0.00 | 39 | 1014.2 |
| 20260503030612 | 59 | 176 | 3.0 | 11.0 | 0.00 | 0.00 | 0.00 | 39 | 1014.2 |
| 20260503030041 | 59 | 174 | 2.0 | 11.0 | 0.00 | 0.00 | 0.00 | 39 | 1014.3 |
| 20260503025539 | 59 | 190 | 3.0 | 7.0 | 0.00 | 0.00 | 0.00 | 38 | 1014.4 |
| 20260503025057 | 59 | 186 | 3.0 | 6.0 | 0.00 | 0.00 | 0.00 | 38 | 1014.4 |
| 20260503024533 | 60 | 198 | 3.0 | 6.0 | 0.00 | 0.00 | 0.00 | 38 | 1014.5 |
| 20260503024050 | 60 | 186 | 2.0 | 6.0 | 0.00 | 0.00 | 0.00 | 38 | 1014.6 |
| 20260503023546 | 60 | 180 | 2.0 | 7.0 | 0.00 | 0.00 | 0.00 | 38 | 1014.6 |
| 20260503023044 | 60 | 200 | 3.0 | 7.0 | 0.00 | 0.00 | 0.00 | 37 | 1014.6 |
| 20260503022540 | 60 | 191 | 3.0 | 6.0 | 0.00 | 0.00 | 0.00 | 37 | 1014.7 |
| 20260503022037 | 60 | 204 | 2.0 | 6.0 | 0.00 | 0.00 | 0.00 | 37 | 1014.6 |
| 20260503021539 | 60 | 208 | 2.0 | 6.0 | 0.00 | 0.00 | 0.00 | 37 | 1014.8 |
| 20260503021036 | 61 | 191 | 1.0 | 2.0 | 0.00 | 0.00 | 0.00 | 36 | 1014.8 |
| 20260503020605 | 61 | 191 | 1.0 | 2.0 | 0.00 | 0.00 | 0.00 | 36 | 1014.8 |
| 20260503020045 | 61 | 191 | 1.0 | 1.0 | 0.00 | 0.00 | 0.00 | 36 | 1014.8 |
| 20260503015542 | 61 | 191 | 0.0 | 2.0 | 0.00 | 0.00 | 0.00 | 36 | 1014.9 |
| 20260503015059 | 62 | 191 | 1.0 | 2.0 | 0.00 | 0.00 | 0.00 | 35 | 1014.9 |
| 20260503014537 | 62 | 191 | 1.0 | 2.0 | 0.00 | 0.00 | 0.00 | 35 | 1014.9 |
| 20260503014033 | 62 | 191 | 1.0 | 2.0 | 0.00 | 0.00 | 0.00 | 35 | 1015.0 |
| 20260503013551 | 62 | 192 | 1.0 | 2.0 | 0.00 | 0.00 | 0.00 | 34 | 1014.9 |
| 20260503013049 | 63 | 192 | 0.0 | 2.0 | 0.00 | 0.00 | 0.00 | 34 | 1014.9 |
| 20260503012545 | 63 | 192 | 0.0 | 3.0 | 0.00 | 0.00 | 0.00 | 34 | 1014.9 |
| 20260503012102 | 63 | 199 | 1.0 | 4.0 | 0.00 | 0.00 | 0.00 | 33 | 1014.9 |
| 20260503011536 | 64 | 200 | 2.0 | 4.0 | 0.00 | 0.00 | 0.00 | 33 | 1014.9 |
| 20260503011034 | 64 | 201 | 1.0 | 4.0 | 0.00 | 0.00 | 0.00 | 33 | 1014.9 |
| 20260503010603 | 64 | 201 | 2.0 | 5.0 | 0.00 | 0.00 | 0.00 | 32 | 1014.9 |
| 20260503010042 | 65 | 200 | 3.0 | 5.0 | 0.00 | 0.00 | 0.00 | 32 | 1015.0 |
| 20260503005540 | 65 | 195 | 3.0 | 6.0 | 0.00 | 0.00 | 0.00 | 32 | 1015.0 |
| 20260503005038 | 65 | 203 | 2.0 | 6.0 | 0.00 | 0.00 | 0.00 | 32 | 1015.0 |
| 20260503004557 | 65 | 192 | 3.0 | 6.0 | 0.00 | 0.00 | 0.00 | 31 | 1015.0 |
| 20260503004033 | 66 | 229 | 3.0 | 7.0 | 0.00 | 0.00 | 0.00 | 30 | 1015.1 |
| 20260503003536 | 66 | 221 | 2.0 | 7.0 | 0.00 | 0.00 | 0.00 | 30 | 1015.0 |
| 20260503003034 | 66 | 226 | 4.0 | 11.0 | 0.00 | 0.00 | 0.00 | 30 | 1015.0 |
| 20260503002532 | 66 | 205 | 5.0 | 11.0 | 0.00 | 0.00 | 0.00 | 29 | 1015.0 |
| 20260503002049 | 66 | 217 | 5.0 | 8.0 | 0.00 | 0.00 | 0.00 | 29 | 1015.1 |
| 20260503001546 | 66 | 216 | 4.0 | 8.0 | 0.00 | 0.00 | 0.00 | 30 | 1015.2 |
| 20260503001043 | 67 | 229 | 5.0 | 9.0 | 0.00 | 0.00 | 0.00 | 29 | 1015.4 |
| 20260503000553 | 67 | 218 | 5.0 | 9.0 | 0.00 | 0.00 | 0.00 | 29 | 1015.4 |
| 20260503000052 | 67 | 186 | 4.0 | 7.0 | 0.00 | 0.00 | 0.00 | 29 | 1015.4 |
| 20260502235549 | 67 | 208 | 3.0 | 8.0 | 0.00 | 0.00 | 0.00 | 29 | 1015.6 |
| 20260502235047 | 67 | 219 | 4.0 | 8.0 | 0.00 | 0.00 | 0.00 | 29 | 1015.7 |
| 20260502234544 | 67 | 224 | 4.0 | 9.0 | 0.00 | 0.00 | 0.00 | 29 | 1015.7 |
| 20260502234042 | 68 | 196 | 4.0 | 9.0 | 0.00 | 0.00 | 0.00 | 28 | 1015.7 |
| 20260502233538 | 68 | 227 | 5.0 | 7.0 | 0.00 | 0.00 | 0.00 | 28 | 1015.9 |
| 20260502233034 | 68 | 231 | 3.0 | 7.0 | 0.00 | 0.00 | 0.00 | 30 | 1015.9 |
| 20260502232549 | 69 | 219 | 1.0 | 5.0 | 0.00 | 0.00 | 0.00 | 29 | 1016.0 |
| 20260502232045 | 69 | 231 | 2.0 | 7.0 | 0.00 | 0.00 | 0.00 | 30 | 1016.0 |
| 20260502231541 | 69 | 221 | 4.0 | 7.0 | 0.00 | 0.00 | 0.00 | 28 | 1016.0 |
| 20260502231056 | 68 | 223 | 2.0 | 7.0 | 0.00 | 0.00 | 0.00 | 28 | 1016.1 |
| 20260502230625 | 69 | 211 | 4.0 | 7.0 | 0.00 | 0.00 | 0.00 | 28 | 1016.2 |
| 20260502230042 | 68 | 281 | 3.0 | 13.0 | 0.00 | 0.00 | 0.00 | 30 | 1016.1 |
| 20260502225541 | 68 | 222 | 5.0 | 13.0 | 0.00 | 0.00 | 0.00 | 29 | 1016.2 |